#timestamp,LO_Frequency,Hit,StdDev 
1577732415.7,286047004.2,N
1577732435.5,286047001.6,N
1577732455.4,286047000.1,N
1577732475.2,286047002.0,N
1577732495.0,286047000.6,N
1577732495.9,286047000.6,N
1577732515.8,286046999.8,N
1577732535.6,286047002.0,N
1577732555.5,286047004.1,N
1577732575.3,286047002.3,N
1577732595.1,286047001.4,N
1577732615.9,286047002.0,N
1577732635.7,286047001.0,N
1577732655.5,286047000.5,N
1577732675.4,286047000.1,N
1577732695.2,286046999.7,N
1577732715.0,286047001.0,N
1577732716.0,286047001.0,N
1577732735.8,286047000.1,N
1577732755.6,286046999.4,N
1577732775.5,286046996.8,N
1577732795.3,286047001.2,N
1577732815.1,286047001.1,N
1577732835.9,286047001.2,N
1577732855.7,286046999.3,N
1577732875.5,286046996.7,N
1577732895.4,286046996.7,N
1577732915.2,286046998.6,N
1577732935.1,286046998.9,N
1577732936.0,286046998.9,N
1577732955.8,286046999.1,N
1577732975.6,286046998.2,N
1577732995.5,286046998.4,N
1577733015.3,286047000.9,N
1577733035.1,286047000.3,N
1577733055.9,286047000.9,N
1577733075.7,286047000.5,N
1577733095.6,286046999.9,N
1577733115.4,286047002.8,N
1577733135.2,286046998.5,N
1577733155.1,286046998.9,N
1577733156.0,286046998.9,N
1577733175.8,286046996.7,N
1577733195.7,286046998.1,N
1577733215.5,286046996.9,N
1577733235.3,286046998.7,N
1577733255.2,286046999.2,N
1577733275.0,286046999.1,N
1577733275.9,286046999.1,N
1577733295.7,286046996.7,N
1577733315.6,286046997.4,N
1577733335.4,286046997.0,N
1577733355.3,286046996.6,N
1577733375.1,286046998.0,N
1577733395.8,286046996.7,N
1577733415.7,286046997.0,N
1577733435.5,286046998.9,N
1577733455.3,286046997.1,N
1577733475.2,286046997.2,N
1577733495.0,286046997.5,N
1577733495.9,286046997.5,N
1577733515.8,286046995.2,Y
1577733535.6,286046995.4,P
1577733555.4,286046994.9,P
1577733575.3,286046997.4,N
1577733595.1,286046994.9,Y
1577733615.9,286046998.2,P
1577733635.7,286047000.9,N
1577733655.5,286047000.0,N
1577733675.4,286047002.6,N
1577733695.2,286047001.4,N
1577733715.0,286047001.7,N
1577733715.9,286047001.7,N
1577733735.8,286047001.5,N
1577733755.6,286047004.0,N
1577733775.5,286047001.3,N
1577733795.3,286047001.6,N
1577733815.1,286047002.2,N
1577733835.9,286047002.7,N
1577733855.7,286046999.9,N
1577733875.5,286047002.6,N
1577733895.4,286047001.8,N
1577733915.2,286047002.3,N
1577733935.1,286047001.8,N
1577733936.0,286047001.8,N
1577733955.8,286047002.6,N
1577733975.6,286047000.6,N
1577733995.5,286047000.1,N
1577734015.3,286047002.1,N
1577734035.1,286047002.2,N
1577734055.9,286047006.0,Y
1577734075.7,286047004.3,P
1577734095.6,286047001.9,N
1577734115.4,286047002.6,N
1577734135.2,286047002.8,N
1577734155.1,286047001.7,N
1577734156.0,286047001.7,N
1577734175.8,286047002.6,N
1577734195.6,286047004.0,Y
1577734215.5,286047000.6,P
1577734235.3,286047002.3,N
1577734255.2,286047000.5,N
1577734275.9,286046998.3,N
1577734325.8,286046998.9,E
1577734335.7,286046998.8,N
1577734355.5,286047001.0,P
1577734375.4,286047000.8,N
1577734395.2,286046998.2,N
1577734415.0,286047000.8,N
1577734415.9,286047000.8,N
1577734435.8,286046998.1,N
1577734455.6,286047001.1,N
1577734475.4,286046999.7,N
1577734495.3,286047000.8,N
1577734515.1,286046998.1,N
1577734535.9,286047000.6,N
1577734555.7,286047001.0,N
1577734575.5,286047001.0,N
1577734595.4,286047000.7,N
1577734615.2,286046999.9,N
1577734635.0,286047000.8,N
1577734635.9,286047000.8,N
1577734655.8,286047000.6,N
1577734675.6,286047000.0,N
1577734695.5,286047002.1,N
1577734715.3,286047001.5,N
1577734735.1,286047001.5,N
1577734755.9,286047001.2,N
1577734775.7,286047000.7,N
1577734795.5,286047001.0,N
1577734815.4,286046999.9,N
1577734835.2,286047000.8,N
1577734855.1,286046999.1,N
1577734856.0,286046999.1,N
1577734875.8,286046998.0,N
1577734895.6,286046996.6,Y
1577734915.5,286046997.0,P
1577734935.3,286046999.1,N
1577734955.1,286046998.0,N
1577734975.9,286046994.9,Y
1577734995.7,286046999.2,P
1577735015.6,286046996.6,P
1577735035.4,286046999.6,N
1577735055.2,286046999.5,N
1577735075.1,286046998.1,N
1577735076.0,286046998.1,N
1577735095.8,286046998.2,N
1577735115.7,286046998.7,N
1577735135.5,286046998.9,N
1577735155.3,286046998.1,N
1577735175.2,286046998.1,N
1577735195.0,286047001.0,N
1577735195.9,286047001.0,N
1577735215.8,286047001.0,N
1577735235.6,286047000.3,N
1577735255.4,286047001.1,N
1577735275.3,286046998.9,N
1577735295.1,286046997.8,N
1577735296.0,286046997.8,N
1577735315.8,286046996.5,N
1577735335.7,286046996.9,N
1577735355.5,286046996.8,N
1577735375.4,286047001.0,N
1577735395.2,286046998.9,N
1577735415.0,286046998.0,N
1577735415.9,286046998.0,N
1577735435.8,286046997.8,N
1577735455.6,286046997.6,N
1577735475.4,286046997.9,N
1577735495.3,286046995.7,Y
1577735515.1,286046998.8,P
1577735535.9,286046998.7,P
1577735555.7,286047001.1,P
1577735575.5,286046998.3,N
1577735595.4,286047000.8,N
1577735615.2,286047001.7,N
1577735635.0,286047000.2,N
1577735636.0,286047000.2,N
1577735655.8,286047001.4,N
1577735675.6,286047002.8,N
1577735695.5,286046999.7,N
1577735715.3,286047001.3,N
1577735735.1,286047002.1,N
1577735755.9,286047001.9,N
1577735775.7,286047004.3,Y
1577735795.6,286047003.8,P
1577735815.4,286047003.1,N
1577735835.2,286047002.2,N
1577735855.1,286047000.6,N
1577735856.0,286047000.6,N
1577735875.8,286047001.2,N
1577735895.6,286046999.5,N
1577735915.5,286046998.3,N
1577735935.3,286046998.7,N
1577735955.2,286046998.5,N
1577735975.9,286046998.4,N
1577735995.7,286047000.7,N
